This is the latest recevied weather packets stored in our database for station/object AF9W-5. If no packets are shown the sender has not sent any weather packets the latest 1 day(s).
| Time | Temp. | Humidity | Pressure | Rain* | Wind** | Luminosity | Snow |
|---|---|---|---|---|---|---|---|
| 1777978342 | 13.33° C | 94% | 1010.9 hPa | 1.78 mm | 0 m/s | 0 W/m² | - |
| 1777978039 | 13.33° C | 94% | 1011.1 hPa | 1.78 mm | 0 m/s | 0 W/m² | - |
| 1777977736 | 13.33° C | 94% | 1010.6 hPa | 0 mm | 0 m/s | 0 W/m² | - |
| 1777977433 | 13.33° C | 93% | 1011.1 hPa | 0 mm | 0.89 m/s, 16° | 0 W/m² | - |
| 1777977131 | 13.33° C | 93% | 1010.8 hPa | 1.27 mm | 0.45 m/s, 22° | 0 W/m² | - |
| 1777976828 | 13.33° C | 93% | 1011.3 hPa | 1.27 mm | 1.34 m/s, 96° | 0 W/m² | - |
| 1777976526 | 13.33° C | 94% | 1011.4 hPa | 1.78 mm | 1.34 m/s, 274° | 0 W/m² | - |
| 1777976225 | 13.33° C | 94% | 1011.7 hPa | 1.78 mm | 0.45 m/s, 138° | 0 W/m² | - |
| 1777975920 | 13.33° C | 94% | 1011.5 hPa | 0 mm | 1.79 m/s, 309° | 0 W/m² | - |
| 1777975617 | 13.33° C | 94% | 1011.5 hPa | 0 mm | 0 m/s | 0 W/m² | - |
| 1777975314 | 13.33° C | 94% | 1011.3 hPa | 0 mm | 0.89 m/s, 333° | 0 W/m² | - |
| 1777975009 | 13.33° C | 94% | 1011.5 hPa | 1.27 mm | 0 m/s | 0 W/m² | - |
| 1777974707 | 13.33° C | 94% | 1011.1 hPa | 1.27 mm | 0 m/s | 0 W/m² | - |
| 1777974403 | 13.33° C | 94% | 1011.4 hPa | 0 mm | 0 m/s | 0 W/m² | - |
| 1777974099 | 13.33° C | 94% | 1011.7 hPa | 1.78 mm | 0 m/s | 0 W/m² | - |
| 1777973796 | 13.33° C | 94% | 1011.7 hPa | 1.78 mm | 0 m/s | 0 W/m² | - |
| 1777973493 | 13.33° C | 94% | 1011.7 hPa | 1.78 mm | 0 m/s | 0 W/m² | - |
| 1777973190 | 13.33° C | 94% | 1011.9 hPa | 1.78 mm | 0 m/s | 0 W/m² | - |
| 1777972889 | 13.33° C | 94% | 1012.4 hPa | 1.78 mm | 0 m/s | 0 W/m² | - |
| 1777972585 | 13.33° C | 94% | 1011.9 hPa | 1.27 mm | 0 m/s | 0 W/m² | - |
| 1777972284 | 13.33° C | 93% | 1011.9 hPa | 3.05 mm | 0 m/s | 0 W/m² | - |
| 1777971981 | 13.33° C | 93% | 1011.7 hPa | 1.78 mm | 0.45 m/s, 39° | 0 W/m² | - |
| 1777971679 | 13.33° C | 93% | 1012.1 hPa | 1.27 mm | 0 m/s | 0 W/m² | - |
| 1777971376 | 13.33° C | 93% | 1012.3 hPa | 3.05 mm | 0 m/s | 0 W/m² | - |
| 1777971074 | 13.33° C | 93% | 1012.6 hPa | 1.78 mm | 0 m/s | 0 W/m² | - |
* Rain latest hour (hover to see other rain measurements)
** Current wind speed in m/s (hover to see current wind gust speed)